Location: *
(38.9555°S, 57.3572°E)
Time: 01:47:09
(UTC+00:00)

Cosmos 44 - Pass Details

Date: 15 July 2020
Orbit: 587 x 775 km, 65.1° (Epoch: 06 August)

Event Time Altitude Azimuth Distance (km) Brightness Sun altitude
Rises 14:24:46 0° 218° (SW) 3,070 6.9 -14.8°
Reaches altitude 10° 14:27:16 10° 224° (SW) 2,114 6.2 -15.2°
Maximum altitude 14:31:46 43° 294° (WNW) 916 4.5 -16.1°
Drops below altitude 10° 14:36:00 10° 5° (N) 1,984 5.8 -16.9°
Sets 14:38:17 0° 12° (NNE) 2,858 6.5 -17.3°
